Weather in Hamilton

New Zealand     37°47′31″S   175°17′15″E
temp.,
°C
wind,
m/s
gust,
m/s
humid.,
%
clouds,
%
prec.,
mm/h
press.,
hPa
HPBL,
m
9 march, tue
tue901:00+11sw11925 0.0 101622
04:00+13ne118856 0.0 101628
07:00+13n118678 0.0 101728
10:00+18sw357243 0.1 1018811
13:00+20wsw556066 0.2 10181302
16:00+20wsw445884 0.0 10171274
19:00+17w467079 0.0 1017508
22:00+12wsw338792 0.0 101962
10 march, wed
wed1001:00+11w118989 0.0 101822
04:00+12ene1185100 0.0 101728
07:00+12ne1286100 0.0 101766
10:00+17n2471100 0.0 1017445
13:00+21nw3560100 0.1 10161317
16:00+22nw5760100 0.2 10141437
19:00+19nw4978100 0.5 1013752
22:00+17n31082100 0.1 1014580
11 march, thu
thu1101:00+16n31097100 1.9 1013492
04:00+16n3999100 3.9 1012417
07:00+16nnw2399100 10.6 1012114
10:00+19w248750 2.5 1014544
13:00+22wsw676228 3.6 10141198
16:00+21w67598 0.1 10141173
19:00+18w35774 0.1 1015324
22:00+13s23930 0.0 101839
12 march, fri
fri1201:00+12sse47920 0.0 1019150
04:00+11s37930 0.0 1019144
07:00+10s34920 0.0 102189
10:00+16sse24650 0.0 1022330
13:00+21se22530 0.0 1022975
16:00+23ssw12470 0.0 10211191
19:00+19wsw36630 0.0 1022218
22:00+13wsw11770 0.0 102423
13 march, sat
sat1301:00+10sse11850 0.0 102523
04:00+9sse12920 0.0 102522
07:00+9sse22950 0.0 102524
10:00+15ese22775 0.0 1026336
13:00+21e22584 0.0 1025992
16:00+23ese12495 0.0 10241391
19:00+19wnw368340 0.4 1024201
22:00+15wnw129330 0.1 102635